| time (UTC) | temp F | wind direction | speed MPH | gust MPH | rain 1hr in | rain 24hr in | rain mn in | humidity % | barometer mb |
| 20260508210728 | 72 | 0 | 0.0 | 0.0 | 0.00 | 0.05 | 0.05 | 99 | 1005.4 |
| 20260508205829 | 72 | 0 | 0.0 | 0.0 | 0.01 | 0.05 | 0.05 | 99 | 1005.4 |
| 20260508204927 | 72 | 0 | 0.0 | 0.0 | 0.01 | 0.05 | 0.05 | 99 | 1005.6 |
| 20260508204027 | 72 | 0 | 0.0 | 0.0 | 0.01 | 0.05 | 0.05 | 99 | 1005.6 |
| 20260508203127 | 72 | 0 | 0.0 | 0.0 | 0.01 | 0.05 | 0.05 | 99 | 1005.6 |
| 20260508202227 | 71 | 0 | 0.0 | 0.0 | 0.01 | 0.05 | 0.05 | 99 | 1005.9 |
| 20260508201328 | 71 | 0 | 0.0 | 0.0 | 0.01 | 0.05 | 0.05 | 99 | 1005.9 |
| 20260508195528 | 71 | 0 | 0.0 | 0.0 | 0.00 | 0.04 | 0.04 | 99 | 1006.5 |
| 20260508194628 | 71 | 0 | 0.0 | 0.0 | 0.00 | 0.04 | 0.04 | 99 | 1006.5 |
| 20260508192828 | 70 | 76 | 0.0 | 6.0 | 0.00 | 0.04 | 0.04 | 99 | 1006.8 |
| 20260508191928 | 71 | 75 | 0.0 | 6.0 | 0.00 | 0.04 | 0.04 | 99 | 1006.7 |
| 20260508191027 | 70 | 0 | 0.0 | 0.0 | 0.00 | 0.04 | 0.04 | 99 | 1006.7 |
| 20260508185227 | 70 | 0 | 0.0 | 0.0 | 0.03 | 0.04 | 0.04 | 99 | 1006.8 |
| 20260508184329 | 70 | 0 | 0.0 | 0.0 | 0.03 | 0.04 | 0.04 | 99 | 1006.8 |
| 20260508183428 | 70 | 0 | 0.0 | 0.0 | 0.03 | 0.04 | 0.04 | 98 | 1006.9 |
| 20260508182529 | 70 | 0 | 0.0 | 0.0 | 0.03 | 0.04 | 0.04 | 99 | 1007.0 |
| 20260508181628 | 70 | 0 | 0.0 | 0.0 | 0.03 | 0.04 | 0.04 | 99 | 1007.0 |
| 20260508180729 | 69 | 0 | 0.0 | 0.0 | 0.03 | 0.04 | 0.04 | 98 | 1007.4 |
| 20260508175828 | 69 | 0 | 0.0 | 0.0 | 0.01 | 0.02 | 0.02 | 98 | 1007.4 |
| 20260508174927 | 69 | 0 | 0.0 | 0.0 | 0.00 | 0.01 | 0.01 | 98 | 1007.6 |
| 20260508174029 | 69 | 0 | 0.0 | 0.0 | 0.00 | 0.01 | 0.01 | 98 | 1007.6 |
| 20260508173127 | 68 | 0 | 0.0 | 0.0 | 0.00 | 0.01 | 0.01 | 98 | 1007.6 |
| 20260508170428 | 68 | 0 | 0.0 | 0.0 | 0.00 | 0.01 | 0.01 | 97 | 1008.0 |
| 20260508165528 | 68 | 0 | 0.0 | 0.0 | 0.00 | 0.01 | 0.01 | 97 | 1008.1 |
| 20260508163727 | 68 | 55 | 2.0 | 7.0 | 0.00 | 0.01 | 0.01 | 96 | 1008.2 |
| 20260508162827 | 68 | 57 | 2.0 | 9.0 | 0.00 | 0.01 | 0.01 | 96 | 1008.2 |
| 20260508161028 | 68 | 21 | 0.0 | 5.0 | 0.01 | 0.01 | 0.01 | 96 | 1009.0 |
| 20260508160128 | 68 | 43 | 1.0 | 5.0 | 0.01 | 0.01 | 0.01 | 95 | 1009.0 |
| 20260508155227 | 68 | 44 | 1.0 | 6.0 | 0.01 | 0.01 | 0.01 | 95 | 1009.0 |
| 20260508154327 | 68 | 34 | 1.0 | 7.0 | 0.01 | 0.01 | 0.01 | 95 | 1009.0 |
| 20260508153427 | 69 | 29 | 1.0 | 7.0 | 0.01 | 0.01 | 0.01 | 95 | 1008.6 |
| 20260508152527 | 69 | 30 | 1.0 | 8.0 | 0.01 | 0.01 | 0.01 | 94 | 1008.6 |
| 20260508151627 | 69 | 18 | 3.0 | 10.0 | 0.00 | 0.00 | 0.00 | 93 | 1008.6 |
| 20260508150727 | 69 | 11 | 2.0 | 10.0 | 0.00 | 0.00 | 0.00 | 93 | 1008.5 |
| 20260508145828 | 69 | 65 | 2.0 | 8.0 | 0.00 | 0.00 | 0.00 | 93 | 1008.5 |
| 20260508144027 | 69 | 31 | 1.0 | 10.0 | 0.00 | 0.00 | 0.00 | 92 | 1009.0 |
| 20260508143127 | 69 | 0 | 0.0 | 0.0 | 0.00 | 0.00 | 0.00 | 91 | 1009.0 |
| 20260508142227 | 69 | 0 | 0.0 | 0.0 | 0.00 | 0.00 | 0.00 | 91 | 1008.8 |
| 20260508141328 | 69 | 0 | 0.0 | 0.0 | 0.00 | 0.00 | 0.00 | 91 | 1008.8 |
| 20260508140427 | 69 | 49 | 0.0 | 3.0 | 0.00 | 0.00 | 0.00 | 91 | 1008.7 |
| 20260508135527 | 69 | 32 | 0.0 | 4.0 | 0.00 | 0.00 | 0.00 | 91 | 1008.7 |
| 20260508134627 | 69 | 0 | 0.0 | 0.0 | 0.00 | 0.00 | 0.00 | 90 | 1008.7 |
| 20260508133727 | 69 | 0 | 0.0 | 0.0 | 0.00 | 0.00 | 0.00 | 91 | 1008.7 |
| 20260508132827 | 69 | 26 | 1.0 | 6.0 | 0.00 | 0.00 | 0.00 | 92 | 1008.7 |
| 20260508131927 | 69 | 25 | 1.0 | 5.0 | 0.00 | 0.00 | 0.00 | 91 | 1008.8 |
| 20260508131028 | 69 | 26 | 0.0 | 5.0 | 0.00 | 0.00 | 0.00 | 91 | 1008.9 |
| 20260508125227 | 69 | 26 | 1.0 | 7.0 | 0.00 | 0.00 | 0.00 | 92 | 1008.7 |
| 20260508124328 | 69 | 25 | 1.0 | 7.0 | 0.00 | 0.00 | 0.00 | 92 | 1008.7 |
| 20260508123427 | 68 | 25 | 0.0 | 4.0 | 0.00 | 0.00 | 0.00 | 92 | 1008.6 |
| 20260508122527 | 68 | 0 | 0.0 | 0.0 | 0.00 | 0.00 | 0.00 | 92 | 1008.9 |
| 20260508121627 | 68 | 1 | 0.0 | 4.0 | 0.00 | 0.00 | 0.00 | 92 | 1008.9 |
| 20260508120727 | 68 | 13 | 1.0 | 6.0 | 0.00 | 0.00 | 0.00 | 93 | 1008.9 |
| 20260508115827 | 68 | 25 | 1.0 | 6.0 | 0.00 | 0.00 | 0.00 | 92 | 1008.9 |
| 20260508114927 | 69 | 26 | 2.0 | 9.0 | 0.00 | 0.00 | 0.00 | 93 | 1008.6 |
| 20260508114028 | 69 | 31 | 3.0 | 9.0 | 0.00 | 0.00 | 0.00 | 92 | 1008.5 |
| 20260508113127 | 69 | 46 | 0.0 | 5.0 | 0.00 | 0.00 | 0.00 | 92 | 1008.5 |
| 20260508111327 | 69 | 52 | 1.0 | 6.0 | 0.00 | 0.00 | 0.00 | 92 | 1008.3 |
| 20260508110427 | 69 | 53 | 2.0 | 5.0 | 0.00 | 0.00 | 0.00 | 92 | 1008.6 |
| 20260508105527 | 70 | 54 | 1.0 | 5.0 | 0.00 | 0.00 | 0.00 | 92 | 1008.6 |
| 20260508104628 | 70 | 55 | 0.0 | 3.0 | 0.00 | 0.00 | 0.00 | 92 | 1008.6 |
| 20260508103727 | 70 | 58 | 1.0 | 6.0 | 0.00 | 0.00 | 0.00 | 90 | 1008.1 |
| 20260508102828 | 70 | 61 | 1.0 | 5.0 | 0.00 | 0.00 | 0.00 | 90 | 1008.1 |
| 20260508101927 | 70 | 61 | 1.0 | 6.0 | 0.00 | 0.00 | 0.00 | 90 | 1008.3 |
| 20260508101027 | 70 | 68 | 1.0 | 5.0 | 0.00 | 0.00 | 0.00 | 89 | 1008.5 |
| 20260508095227 | 70 | 70 | 0.0 | 5.0 | 0.00 | 0.00 | 0.00 | 89 | 1007.7 |
| 20260508094327 | 70 | 71 | 0.0 | 4.0 | 0.00 | 0.00 | 0.00 | 88 | 1007.7 |
| 20260508093427 | 70 | 70 | 1.0 | 6.0 | 0.00 | 0.00 | 0.00 | 88 | 1008.1 |
| 20260508092527 | 70 | 70 | 1.0 | 8.0 | 0.00 | 0.00 | 0.00 | 87 | 1008.2 |
| 20260508090727 | 70 | 19 | 2.0 | 6.0 | 0.00 | 0.00 | 0.00 | 86 | 1008.5 |
| 20260508085827 | 71 | 10 | 1.0 | 6.0 | 0.00 | 0.00 | 0.00 | 85 | 1008.5 |
| 20260508084927 | 71 | 10 | 2.0 | 7.0 | 0.00 | 0.00 | 0.00 | 85 | 1008.5 |
| 20260508084028 | 71 | 16 | 2.0 | 7.0 | 0.00 | 0.00 | 0.00 | 84 | 1008.6 |
| 20260508083128 | 71 | 17 | 1.0 | 6.0 | 0.00 | 0.00 | 0.00 | 84 | 1008.6 |
| 20260508082227 | 71 | 17 | 1.0 | 6.0 | 0.00 | 0.00 | 0.00 | 83 | 1008.5 |
| 20260508081328 | 72 | 17 | 1.0 | 7.0 | 0.00 | 0.00 | 0.00 | 83 | 1008.5 |
| 20260508080428 | 72 | 18 | 1.0 | 7.0 | 0.00 | 0.00 | 0.00 | 83 | 1008.5 |
| 20260508075528 | 72 | 54 | 2.0 | 5.0 | 0.00 | 0.00 | 0.00 | 83 | 1008.7 |
| 20260508074627 | 72 | 54 | 0.0 | 5.0 | 0.00 | 0.00 | 0.00 | 83 | 1008.7 |
| 20260508073727 | 72 | 0 | 0.0 | 0.0 | 0.00 | 0.00 | 0.00 | 83 | 1008.6 |
| 20260508072828 | 72 | 0 | 0.0 | 0.0 | 0.00 | 0.00 | 0.00 | 83 | 1008.6 |
| 20260508071927 | 72 | 0 | 0.0 | 0.0 | 0.00 | 0.00 | 0.00 | 83 | 1008.6 |
| 20260508071027 | 72 | 0 | 0.0 | 0.0 | 0.00 | 0.00 | 0.00 | 82 | 1008.7 |
| 20260508070127 | 72 | 0 | 0.0 | 0.0 | 0.00 | 0.00 | 0.00 | 83 | 1008.7 |
| 20260508063427 | 72 | 54 | 0.0 | 4.0 | 0.00 | 0.00 | 0.00 | 81 | 1008.8 |
| 20260508062527 | 72 | 54 | 0.0 | 4.0 | 0.00 | 0.00 | 0.00 | 81 | 1009.0 |
| 20260508061628 | 72 | 0 | 0.0 | 0.0 | 0.00 | 0.00 | 0.00 | 81 | 1009.0 |
| 20260508060727 | 72 | 0 | 0.0 | 0.0 | 0.00 | 0.00 | 0.00 | 80 | 1009.0 |
| 20260508055827 | 73 | 51 | 0.0 | 5.0 | 0.00 | 0.00 | 0.00 | 80 | 1009.0 |
| 20260508054927 | 73 | 44 | 0.0 | 6.0 | 0.00 | 0.00 | 0.00 | 80 | 1009.0 |
| 20260508054028 | 73 | 0 | 0.0 | 0.0 | 0.00 | 0.00 | 0.00 | 80 | 1009.0 |
| 20260508053127 | 73 | 37 | 0.0 | 4.0 | 0.00 | 0.00 | 0.00 | 80 | 1009.0 |
| 20260508052228 | 73 | 39 | 1.0 | 7.0 | 0.00 | 0.00 | 0.00 | 79 | 1008.6 |
| 20260508051327 | 74 | 49 | 0.0 | 5.0 | 0.00 | 0.00 | 0.00 | 80 | 1008.6 |
| 20260508050427 | 74 | 50 | 0.0 | 4.0 | 0.00 | 0.00 | 0.00 | 80 | 1008.6 |
| 20260508045527 | 74 | 49 | 0.0 | 5.0 | 0.00 | 0.00 | 0.00 | 79 | 1008.6 |
| 20260508044627 | 74 | 47 | 1.0 | 6.0 | 0.00 | 0.00 | 0.00 | 79 | 1008.6 |
| 20260508043727 | 74 | 69 | 1.0 | 6.0 | 0.00 | 0.00 | 0.00 | 79 | 1009.1 |
| 20260508040127 | 74 | 104 | 1.0 | 9.0 | 0.00 | 0.00 | 0.00 | 79 | 1008.6 |
| 20260508035227 | 75 | 78 | 1.0 | 9.0 | 0.00 | 0.00 | 0.00 | 78 | 1009.1 |
| 20260508034327 | 75 | 66 | 1.0 | 9.0 | 0.00 | 0.00 | 0.00 | 77 | 1009.1 |
| 20260508033427 | 75 | 0 | 0.0 | 0.0 | 0.00 | 0.00 | 0.00 | 77 | 1009.6 |
| 20260508032527 | 75 | 22 | 1.0 | 7.0 | 0.00 | 0.00 | 0.00 | 76 | 1009.6 |
| 20260508030728 | 75 | 39 | 1.0 | 10.0 | 0.00 | 0.00 | 0.00 | 76 | 1009.6 |
| 20260508025827 | 76 | 35 | 0.0 | 5.0 | 0.00 | 0.00 | 0.00 | 76 | 1009.6 |
| 20260508024927 | 76 | 36 | 1.0 | 9.0 | 0.00 | 0.00 | 0.00 | 75 | 1009.4 |
| 20260508024027 | 76 | 69 | 1.0 | 7.0 | 0.00 | 0.00 | 0.00 | 74 | 1009.4 |
| 20260508023127 | 76 | 48 | 2.0 | 9.0 | 0.00 | 0.00 | 0.00 | 74 | 1009.4 |
| 20260508022227 | 76 | 37 | 0.0 | 9.0 | 0.00 | 0.00 | 0.00 | 75 | 1009.3 |
| 20260508021327 | 76 | 35 | 0.0 | 5.0 | 0.00 | 0.00 | 0.00 | 75 | 1009.3 |
| 20260508020428 | 76 | 39 | 0.0 | 5.0 | 0.00 | 0.00 | 0.00 | 75 | 1009.1 |
| 20260508013727 | 76 | 63 | 1.0 | 7.0 | 0.00 | 0.00 | 0.00 | 77 | 1009.1 |
| 20260508012827 | 76 | 13 | 0.0 | 6.0 | 0.00 | 0.00 | 0.00 | 77 | 1009.1 |
| 20260508011927 | 76 | 10 | 0.0 | 5.0 | 0.00 | 0.00 | 0.00 | 78 | 1009.4 |
| 20260508011027 | 77 | 11 | 0.0 | 7.0 | 0.00 | 0.00 | 0.00 | 78 | 1009.3 |
| 20260508010127 | 77 | 12 | 2.0 | 10.0 | 0.00 | 0.00 | 0.00 | 78 | 1009.3 |
| 20260508003427 | 77 | 12 | 1.0 | 6.0 | 0.00 | 0.00 | 0.00 | 77 | 1009.1 |
| 20260508002527 | 77 | 10 | 0.0 | 3.0 | 0.00 | 0.00 | 0.00 | 78 | 1009.1 |
| 20260508001627 | 77 | 8 | 0.0 | 5.0 | 0.00 | 0.00 | 0.00 | 77 | 1009.1 |
| 20260508000727 | 78 | 7 | 0.0 | 5.0 | 0.00 | 0.00 | 0.00 | 77 | 1009.3 |
| 20260507235827 | 78 | 5 | 0.0 | 4.0 | 0.00 | 0.00 | 0.00 | 78 | 1009.3 |
| 20260507234927 | 78 | 28 | 2.0 | 6.0 | 0.00 | 0.00 | 0.00 | 77 | 1009.1 |
| 20260507234027 | 78 | 21 | 1.0 | 10.0 | 0.00 | 0.00 | 0.00 | 76 | 1008.9 |
| 20260507233128 | 78 | 35 | 1.0 | 11.0 | 0.00 | 0.00 | 0.00 | 76 | 1008.9 |
| 20260507232227 | 79 | 75 | 0.0 | 9.0 | 0.00 | 0.00 | 0.00 | 76 | 1009.0 |
| 20260507231327 | 79 | 0 | 0.0 | 0.0 | 0.00 | 0.00 | 0.00 | 75 | 1009.0 |
| 20260507230427 | 80 | 0 | 0.0 | 0.0 | 0.00 | 0.00 | 0.00 | 75 | 1008.7 |
| 20260507225527 | 80 | 0 | 0.0 | 0.0 | 0.00 | 0.00 | 0.00 | 74 | 1008.6 |
| 20260507224627 | 80 | 0 | 0.0 | 0.0 | 0.00 | 0.00 | 0.00 | 75 | 1008.6 |
| 20260507223727 | 80 | 0 | 0.0 | 0.0 | 0.00 | 0.00 | 0.00 | 75 | 1008.6 |
| 20260507222827 | 80 | 32 | 0.0 | 10.0 | 0.00 | 0.00 | 0.00 | 75 | 1008.6 |
| 20260507221927 | 80 | 105 | 0.0 | 6.0 | 0.00 | 0.00 | 0.00 | 74 | 1008.7 |
| 20260507221027 | 80 | 0 | 0.0 | 0.0 | 0.00 | 0.00 | 0.00 | 75 | 1009.0 |
| 20260507220127 | 80 | 12 | 0.0 | 7.0 | 0.00 | 0.00 | 0.00 | 76 | 1009.0 |
| 20260507215226 | 80 | 21 | 1.0 | 7.0 | 0.00 | 0.00 | 0.00 | 76 | 1009.0 |
| 20260507214327 | 80 | 38 | 1.0 | 9.0 | 0.00 | 0.00 | 0.00 | 75 | 1009.0 |
| 20260507212527 | 80 | 80 | 0.0 | 7.0 | 0.00 | 0.00 | 0.00 | 74 | 1009.1 |